Regional Weather Roundup
Issued by NWS

Home | Current Version | Previous Version | Graphics & Text | Print | Product List | Glossary On
Versions: 1 2 3 4 5 6 7 8 9 10 11 12 13 14 15 16 17 18 19 20 21 22 23 24 25 26 27 28 29 30 31 32 33 34 35 36 37 38 39 40 41 42 43 44 45 46 47 48 49 50
590
ASUS44 KLIX 280710
RWRLA
LOUISIANA WEATHER ROUNDUP
NATIONAL WEATHER SERVICE NEW ORLEANS LA
100 AM CST WED JAN 28 2015

NOTE: "FAIR" INDICATES FEW OR NO CLOUDS BELOW 12,000 FEET WITH NO
      SIGNIFICANT WEATHER AND/OR OBSTRUCTIONS TO VISIBILITY.
      SKY/WX - SKY CONDITION AND SIGNIFICANT WEATHER.
      TMP - AIR TEMPERATURE.    DP   - DEWPOINT TEMPERATURE.
      RH  - RELATIVE HUMIDITY.  PRES - PRESSURE.
      HX  - HEAT INDEX.         WCI  - WIND CHILL INDEX.

*  THESE STATIONS ARE NOT NWS OR FAA STATIONS AND ARE NOT UNDER
   NWS QUALITY CONTROL.

LAZ040-048-061>063-065-066-069-280800-
SOUTHEAST LOUISIANA

CITY           SKY/WX    TMP DP  RH WIND       PRES   REMARKS
N.O. AUDUBON     N/A     57  38  49 MISG        N/A
N.O. INTL ARPT CLEAR     51  41  68 CALM      30.18S
N.O. LAKEFRONT CLEAR     56  43  61 NE8       30.19R
N.O. DOWNTOWN* FAIR      57  34  41 N5        30.18S
SLIDELL        CLEAR     46  37  71 N5        30.18R
BATON ROUGE    CLEAR     46  38  73 CALM      30.18R
BOOTHVILLE     CLEAR     55  49  80 NW6       30.18R
BELLE CHASSE   CLEAR     48  38  68 NE7       30.18R
BOGALUSA*        N/A     42  37  82 CALM      30.20S
GALLIANO*      SUNNY     55  43  63 MISG      30.18S
NEW ROADS*     FAIR      45  40  84 CALM      30.18S
GONZALES*      FAIR      51  38  62 CALM      30.18S
HAMMOND*       CLEAR     43  37  81 CALM      30.20S
HOUMA*         CLEAR     46  45  94 CALM      30.17F
PORT FOURCHON* SUNNY     55  50  82 N7        30.20S

$$

LAZ041-044-053-054-280800-
SOUTHWEST LOUISIANA

CITY           SKY/WX    TMP DP  RH WIND       PRES   REMARKS
LAKE CHARLES   CLEAR     45  44  97 CALM      30.17S
LAFAYETTE      CLEAR     49  41  74 CALM      30.17S
PATTERSON      CLEAR     46  45  93 CALM      30.19S
SALT POINT       N/A     50  48  93 CALM      30.16F
NEW IBERIA     CLEAR     49  43  80 CALM      30.18S
CHENAULT AIRPK CLEAR     46  45  97 CALM      30.17F

$$

LAZ027-028-280800-
CENTRAL LOUISIANA

CITY           SKY/WX    TMP DP  RH WIND       PRES   REMARKS
FORT POLK      NOT AVBL
ALEXANDRIA INT CLEAR     45  41  86 CALM      30.16S
ALEXANDRIA     CLEAR     42  37  82 CALM      30.18S

$$

LAZ001-002-280800-
NORTHWEST LOUISIANA

CITY           SKY/WX    TMP DP  RH WIND       PRES   REMARKS
SHREVEPORT     CLEAR     45  39  79 CALM      30.14F
BARKSDALE AFB  NOT AVBL
DTN SHREVEPORT CLEAR     46  37  71 CALM      30.14F

$$

LAZ014-016-280800-
NORTHEAST LOUISIANA

CITY           SKY/WX    TMP DP  RH WIND       PRES   REMARKS
MONROE         CLEAR     44  37  76 CALM      30.19F
TALLULAH       CLEAR     39  36  89 SE3       30.19F

$$




USA.gov is the U.S. government's official web portal to all federal, state and local government web resources and services.